Location: Shenandoah County Park
(38.9356°N, 78.4524°W)
Time: 06:16:08
(UTC-04:00)

Transit 2A - Pass Details

Date: 13 June 2024
Orbit: 591 x 960 km, 66.7° (Epoch: 23 July)

Event Time Altitude Azimuth Distance (km) Brightness Sun altitude
Rises 01:46:13 0° 343° (NNW) 3,480 10.4 -27.4°
Reaches altitude 10° 01:49:39 10° 4° (N) 2,598 9.7 -27.3°
Maximum altitude 01:53:31 17° 43° (NE) 2,176 8.9 -27.1°
Drops below altitude 10° 01:57:29 10° 83° (E) 2,678 9.0 -27.0°
Sets 02:01:05 0° 102° (ESE) 3,635 9.5 -26.9°
